Track COSMOS 2492 (GLONASS) now! COSMOS 2492 (GLONASS) is classified as:
1 39620U 14012A 22187.70980027 -.00000033 00000-0 00000-0 0 9998 2 39620 65.8422 2.4951 0011711 334.0714 339.0150 2.13103174 64512